PBO Station Position Time Series. Reference Frame : NAM14
Format Version,1.1.1
4-character ID,TNLC
Station name,TNLC_TNET_MX2015
Begin Date, 2015-10-26
End Date, 2023-06-26
Release Date, 2023-06-27
Reference position, 19.5061118766 North Latitude, -104.5492294299 East Longitude, 267.84778 meters elevation,
Date, North (mm), East (mm), Vertical (mm), North Std. Deviation (mm), East Std. Deviation (mm),              Vertical Std. Deviation (mm), Quality,
2015-10-26,0.00, 0.00, 0.00, 1.71, 1.99, 7.76, repro,
2015-10-27,0.54, -0.94, 0.16, 1.61, 1.77, 7.06, repro,
2015-10-28,1.35, 3.95, -7.95, 1.61, 1.78, 7.11, repro,
2015-10-29,1.02, 1.48, 4.64, 1.62, 1.80, 7.15, repro,
2015-10-30,-2.50, 1.58, -5.87, 1.69, 1.89, 7.51, repro,
2015-10-31,-0.62, 0.62, 0.66, 1.65, 1.83, 7.21, repro,
2015-11-01,-1.52, 0.35, -7.37, 1.62, 1.79, 7.08, repro,
2015-11-02,0.22, 0.73, -14.78, 1.62, 1.78, 7.11, repro,
2015-11-03,-1.00, 2.13, -8.88, 1.68, 1.94, 7.50, repro,
2015-11-04,-0.95, 0.22, -6.88, 1.62, 1.86, 7.18, repro,
2015-11-05,-0.52, 2.24, -8.38, 1.62, 1.87, 7.21, repro,
2015-11-06,-0.72, 1.51, -11.16, 1.64, 1.86, 7.26, repro,
2015-11-07,-0.65, -0.56, -0.90, 1.70, 1.95, 7.41, repro,
2015-11-08,0.71, 2.95, -6.60, 1.68, 1.91, 7.40, repro,
2015-11-09,-1.55, 1.77, -6.07, 1.65, 1.93, 7.45, repro,
2015-11-10,-1.97, -0.12, -10.89, 1.63, 1.85, 7.17, repro,
2015-11-11,-1.39, 0.66, -1.60, 1.63, 1.85, 7.17, repro,
2015-11-12,-0.13, 1.09, 0.55, 1.64, 1.91, 7.34, repro,
2015-11-13,-1.49, 1.17, 5.40, 1.72, 2.03, 7.93, repro,
2015-11-14,1.10, 0.45, -5.88, 1.61, 1.86, 7.19, repro,
2015-11-15,-0.87, 0.48, -9.31, 1.63, 1.86, 7.23, repro,
2015-11-16,-1.56, 1.14, -4.27, 1.95, 2.37, 8.75, repro,
2015-11-17,-1.22, 0.96, -1.15, 1.62, 1.85, 7.17, repro,
2015-11-18,1.01, 0.30, -7.41, 1.63, 1.87, 7.23, repro,
2015-11-19,0.89, 1.37, 1.88, 1.63, 1.86, 7.24, repro,
2015-11-20,-0.03, 1.19, 2.91, 1.61, 1.86, 7.22, repro,
2015-11-21,-0.93, 1.49, -2.45, 1.63, 1.85, 7.20, repro,
2015-11-22,0.16, 3.06, -2.14, 1.79, 1.93, 7.93, repro,
2015-11-23,0.09, 1.45, -11.57, 1.64, 1.90, 7.31, repro,
2015-11-24,-1.56, 3.36, -9.66, 1.76, 2.11, 8.04, repro,
2015-11-25,-0.51, 1.24, -7.89, 1.63, 1.87, 7.25, repro,
2015-11-26,-0.13, 2.56, -2.08, 1.63, 1.85, 7.23, repro,
2015-11-27,0.06, 2.30, 2.45, 1.63, 1.87, 7.30, repro,
2015-11-28,3.59, 0.74, -9.84, 1.63, 1.85, 7.22, repro,
2015-11-29,0.08, 1.58, -6.61, 1.62, 1.84, 7.19, repro,
2015-11-30,-0.10, 1.87, -0.17, 1.67, 1.87, 7.48, repro,
2015-12-01,-0.36, 3.74, -8.78, 1.64, 1.89, 7.40, repro,
2015-12-02,-0.40, 0.48, -0.92, 1.72, 2.12, 7.91, repro,
2015-12-03,-1.22, 0.03, -6.11, 1.75, 2.13, 7.93, repro,
2015-12-04,-0.51, 0.87, -7.17, 1.65, 1.89, 7.31, repro,
2015-12-05,0.69, 0.53, -5.59, 1.62, 1.85, 7.23, repro,
2015-12-06,-0.12, 1.74, -11.37, 1.62, 1.86, 7.31, repro,
2015-12-07,-0.06, 1.31, -6.12, 1.64, 1.90, 7.32, repro,
2015-12-08,-0.56, -0.12, -5.88, 1.63, 1.88, 7.27, repro,
2015-12-09,0.44, 2.66, -1.86, 1.69, 1.97, 7.70, repro,
2015-12-10,0.29, 0.22, -2.72, 1.65, 1.90, 7.29, repro,
2015-12-11,-0.14, -0.14, -0.70, 1.65, 1.91, 7.35, repro,
2015-12-12,0.08, -0.28, -6.16, 1.62, 1.87, 7.25, repro,
2015-12-13,0.38, -0.15, -7.28, 1.63, 1.85, 7.23, repro,
2015-12-14,-0.45, 0.47, -3.96, 1.62, 1.85, 7.21, repro,
2015-12-15,0.25, 0.97, -0.19, 1.60, 1.83, 7.17, repro,
2015-12-16,-0.39, 1.21, 1.18, 1.64, 1.89, 7.27, repro,
2015-12-17,0.20, 0.29, -2.20, 1.67, 1.94, 7.50, repro,
2015-12-18,-0.34, 3.15, -6.67, 1.62, 1.85, 7.23, repro,
2015-12-19,0.13, 1.90, -10.36, 1.58, 1.80, 7.10, repro,
2015-12-20,0.14, 2.69, -10.70, 1.60, 1.81, 7.13, repro,
2015-12-21,0.33, 0.84, -12.75, 1.70, 1.88, 7.53, repro,
2015-12-22,0.35, 1.00, 1.85, 1.59, 1.82, 7.12, repro,
2015-12-23,0.75, 0.31, -4.39, 1.59, 1.82, 7.12, repro,
2015-12-24,-0.82, 1.16, -2.31, 1.59, 1.82, 7.13, repro,
2015-12-25,-0.68, 0.51, -1.76, 1.59, 1.82, 7.15, repro,
2015-12-26,-0.86, 0.00, -2.19, 1.59, 1.82, 7.13, repro,
2015-12-27,-0.40, 0.29, -2.47, 1.59, 1.80, 7.10, repro,
2015-12-28,-1.31, 2.02, -0.35, 1.58, 1.81, 7.08, repro,
2015-12-29,-1.31, 1.33, -0.11, 1.60, 1.80, 7.14, repro,
2015-12-30,0.48, -0.13, 3.30, 1.60, 1.80, 7.14, repro,
2015-12-31,0.39, 1.46, -9.83, 1.61, 1.88, 7.31, repro,
2016-01-01,0.17, 0.69, -12.22, 1.65, 1.85, 7.36, repro,
2016-01-02,0.50, 1.33, -5.57, 1.59, 1.86, 7.25, repro,
2016-01-03,-0.64, 0.23, -10.16, 1.61, 1.88, 7.32, repro,
2016-01-04,-0.55, 1.33, -7.36, 1.59, 1.82, 7.17, repro,
2016-01-05,1.13, 2.70, 1.48, 1.62, 1.87, 7.26, repro,
2016-01-06,-0.95, 0.45, -10.50, 1.66, 1.89, 7.38, repro,
2016-01-07,0.00, 1.83, -1.35, 1.63, 1.90, 7.30, repro,
2016-01-08,-1.43, 1.08, -6.30, 1.63, 1.87, 7.29, repro,
2016-01-09,-1.34, 1.76, -8.54, 1.63, 1.83, 7.21, repro,
2016-01-10,0.37, 0.46, -8.38, 1.60, 1.82, 7.19, repro,
2016-01-11,-0.16, -0.52, -10.51, 1.65, 1.84, 7.45, repro,
2016-01-12,-0.50, -2.79, -6.75, 1.63, 1.89, 7.39, repro,
2016-01-13,2.53, 0.37, -2.55, 1.63, 1.91, 7.46, repro,
2016-01-14,0.68, 0.58, -5.46, 1.61, 1.90, 7.32, repro,
2016-01-15,1.10, 0.81, -5.83, 1.62, 1.88, 7.19, repro,
2016-01-16,-2.02, -0.06, -3.64, 1.59, 1.81, 7.15, repro,
2016-01-17,-1.33, 0.28, -5.05, 1.61, 1.82, 7.22, repro,
2016-01-18,0.38, 0.38, -8.00, 1.64, 1.86, 7.36, repro,
2016-01-19,1.53, 0.91, -8.13, 1.60, 1.83, 7.13, repro,
2016-01-20,1.74, -1.41, -4.80, 1.65, 1.85, 7.30, repro,
2016-01-21,-0.10, -1.87, -21.31, 1.59, 1.82, 7.09, repro,
2016-01-22,-0.91, -2.34, -16.71, 1.60, 1.84, 7.19, repro,
2016-01-23,0.03, -1.80, -12.56, 1.60, 1.83, 7.18, repro,
2016-01-24,-0.20, -0.52, -15.17, 1.63, 1.85, 7.20, repro,
2016-01-25,0.13, 0.06, -13.96, 1.62, 1.81, 7.23, repro,
2016-01-26,-0.31, -0.85, -12.43, 1.63, 1.82, 7.24, repro,
2016-01-27,-1.32, -0.64, -12.08, 1.66, 1.91, 7.54, repro,
2016-01-28,1.22, -1.74, -10.03, 1.63, 1.83, 7.31, repro,
2016-01-29,0.97, -0.51, -19.43, 1.67, 1.83, 7.51, repro,
2016-01-30,0.62, 0.63, -4.39, 1.68, 1.95, 7.73, repro,
2016-01-31,1.98, 0.85, -14.55, 1.66, 1.83, 7.46, repro,
2016-02-01,-0.79, 0.70, -10.71, 1.62, 1.81, 7.20, repro,
2016-02-02,0.48, 1.50, -3.97, 1.86, 2.03, 8.27, repro,
2016-02-03,1.06, -1.36, -20.13, 1.67, 1.93, 7.69, repro,
2016-02-04,-0.54, 0.09, -15.89, 1.67, 1.85, 7.34, repro,
2016-02-05,-1.13, 0.57, -20.77, 1.64, 1.85, 7.39, repro,
2016-02-06,0.85, -1.05, -21.47, 1.64, 1.82, 7.26, repro,
2016-02-07,0.17, -1.80, -14.89, 1.65, 1.81, 7.36, repro,
2016-02-08,-0.47, 2.24, -17.76, 1.67, 1.87, 7.47, repro,
2016-02-09,-1.30, 0.76, -11.34, 1.64, 1.81, 7.30, repro,
2016-02-10,1.29, -0.09, -24.08, 1.66, 1.85, 7.33, repro,
2016-02-11,1.44, 1.14, -18.61, 1.75, 2.03, 7.73, repro,
2016-02-12,1.23, 0.25, -20.48, 1.66, 1.83, 7.34, repro,
2016-02-13,1.91, -1.20, -24.26, 1.68, 1.86, 7.36, repro,
2016-02-14,0.28, -2.03, -15.34, 1.65, 1.86, 7.34, repro,
2016-02-15,-1.04, -2.57, -15.97, 1.65, 1.85, 7.28, repro,
2016-02-16,0.26, -1.78, -13.50, 1.62, 1.81, 7.22, repro,
2016-02-17,0.26, -3.07, -18.87, 1.64, 1.81, 7.26, repro,
2016-02-18,-1.32, 1.21, -20.36, 1.65, 1.82, 7.34, repro,
2016-02-19,1.23, -1.64, -16.87, 1.63, 1.81, 7.25, repro,
2016-02-20,1.48, 0.02, -14.12, 1.61, 1.80, 7.18, repro,
2016-02-21,-0.93, -3.00, -19.12, 1.62, 1.81, 7.19, repro,
2016-02-22,-0.84, -1.88, -21.55, 1.63, 1.80, 7.24, repro,
2016-02-23,0.58, -1.61, -12.00, 1.67, 1.85, 7.40, repro,
2016-02-24,1.51, -1.97, -16.63, 1.67, 1.86, 7.40, repro,
2016-02-25,0.32, -2.09, -22.78, 1.65, 1.84, 7.28, repro,
2016-02-26,2.08, -1.46, -11.99, 1.65, 1.86, 7.30, repro,
2016-02-27,2.09, -1.88, -19.17, 1.62, 1.81, 7.22, repro,
2016-02-28,1.00, -1.92, -19.65, 1.65, 1.86, 7.38, repro,
2016-02-29,1.10, -0.78, -19.73, 1.95, 2.17, 8.98, repro,
2016-03-01,2.31, -3.38, -14.93, 1.68, 1.84, 7.44, repro,
2016-03-02,-0.38, -2.95, -21.99, 1.61, 1.79, 7.14, repro,
2016-03-03,0.45, -1.57, -18.95, 1.64, 1.82, 7.22, repro,
2016-03-04,-0.44, -1.41, -28.08, 1.66, 1.84, 7.32, repro,
2016-03-05,0.31, -2.02, -19.93, 1.64, 1.81, 7.27, repro,
2016-03-06,0.23, -3.28, -21.33, 1.62, 1.80, 7.20, repro,
2016-03-07,0.08, -5.15, -25.23, 1.65, 1.89, 7.35, repro,
2016-03-08,0.88, 0.71, -20.67, 1.72, 2.02, 7.64, repro,
2016-03-09,4.42, -2.59, -18.15, 1.68, 1.93, 7.49, repro,
2016-03-10,-0.37, 0.46, -21.47, 1.60, 1.78, 7.14, repro,
2016-03-11,-2.09, -0.57, -21.78, 1.60, 1.77, 7.11, repro,
2016-03-12,-1.29, 0.34, -18.69, 1.58, 1.77, 7.09, repro,
2016-03-13,-2.31, -0.62, -20.89, 1.59, 1.79, 7.19, repro,
2016-03-14,-0.55, 0.03, -8.90, 1.62, 1.84, 7.20, repro,
2016-03-15,-1.93, -1.01, -8.28, 1.66, 1.87, 7.47, repro,
2016-03-16,-1.77, -0.01, -11.04, 1.68, 1.89, 7.41, repro,
2016-03-17,-0.23, 1.27, -15.92, 1.67, 1.88, 7.47, repro,
2016-03-18,-0.45, -1.43, -17.50, 1.70, 1.93, 7.69, repro,
2016-03-19,0.26, -4.84, -25.22, 1.61, 1.81, 7.23, repro,
2016-03-20,-0.50, -1.98, -15.93, 1.59, 1.77, 7.12, repro,
2016-03-21,-0.65, 0.14, -13.88, 1.60, 1.78, 7.15, repro,
2016-03-22,1.13, 0.60, -17.13, 1.59, 1.78, 7.11, repro,
2016-03-23,0.37, -0.42, -15.13, 1.64, 1.82, 7.23, repro,
2016-03-24,0.88, -3.28, -12.98, 1.58, 1.78, 7.14, repro,
2016-03-25,1.21, -3.06, -13.99, 1.59, 1.78, 7.18, repro,
2016-03-26,-0.16, -2.60, -19.25, 1.59, 1.78, 7.22, repro,
2016-03-27,0.23, -1.47, -11.54, 1.58, 1.78, 7.17, repro,
2016-03-28,-0.44, -2.25, -18.59, 1.60, 1.77, 7.18, repro,
2016-03-29,1.71, -0.67, -15.78, 1.67, 1.94, 7.72, repro,
2016-03-30,-0.40, -1.67, -15.57, 1.60, 1.78, 7.25, repro,
2016-03-31,0.61, -1.91, -9.09, 1.59, 1.78, 7.23, repro,
2016-04-01,-2.03, -2.00, -15.96, 1.59, 1.79, 7.22, repro,
2016-04-02,-1.57, 0.16, -13.27, 1.65, 1.83, 7.47, repro,
2016-04-03,-0.74, -2.04, -15.50, 1.61, 1.84, 7.40, repro,
2016-04-04,1.76, -0.53, -10.96, 1.62, 1.81, 7.31, repro,
2016-04-05,-0.87, -2.14, -18.95, 1.59, 1.78, 7.29, repro,
2016-04-06,-0.80, -0.70, -16.49, 1.58, 1.77, 7.22, repro,
2016-04-07,0.18, 0.45, -15.54, 1.59, 1.82, 7.35, repro,
2016-04-08,-2.26, 0.57, -11.05, 1.58, 1.78, 7.30, repro,
2016-04-09,0.16, 0.84, -14.45, 1.59, 1.77, 7.29, repro,
2016-04-10,0.34, -1.03, -12.29, 1.60, 1.77, 7.31, repro,
2016-04-11,0.66, -0.28, -11.69, 1.63, 1.85, 7.42, repro,
2016-04-12,-2.73, 1.07, -16.39, 1.60, 1.82, 7.36, repro,
2016-04-13,0.62, -0.69, -11.95, 1.61, 1.84, 7.32, repro,
2016-04-14,-1.29, -1.64, -9.37, 1.63, 1.89, 7.68, repro,
2016-04-15,-1.21, 0.34, -6.23, 1.61, 1.78, 7.35, repro,
2016-04-16,-2.10, 0.61, -18.30, 1.60, 1.77, 7.31, repro,
2016-04-17,-2.06, 1.23, -15.76, 1.59, 1.77, 7.27, repro,
2016-04-18,-1.25, 1.71, -10.71, 1.59, 1.77, 7.27, repro,
2016-04-19,-0.86, 1.44, -9.44, 1.61, 1.79, 7.44, repro,
2016-04-20,0.15, 1.70, -3.01, 1.63, 1.80, 7.53, repro,
2016-04-21,-2.15, 0.13, -10.34, 1.62, 1.84, 7.46, repro,
2016-04-22,-0.99, -0.18, -6.49, 1.58, 1.77, 7.29, repro,
2016-04-23,-0.59, -0.14, -5.32, 1.60, 1.85, 7.54, repro,
2016-04-24,0.61, -0.76, -6.60, 1.58, 1.78, 7.33, repro,
2016-04-25,-1.04, -1.31, -8.28, 1.57, 1.77, 7.29, repro,
2016-04-26,-0.49, 0.06, -4.75, 1.58, 1.77, 7.30, repro,
2016-04-27,-1.09, 1.17, -0.93, 1.56, 1.76, 7.25, repro,
2016-04-28,-1.61, -1.89, -11.80, 1.60, 1.79, 7.41, repro,
2016-04-29,-0.21, -0.01, -10.90, 1.60, 1.77, 7.36, repro,
2016-04-30,-0.97, 1.19, -8.81, 1.61, 1.82, 7.45, repro,
2016-05-01,-0.86, 2.49, -15.10, 1.60, 1.78, 7.34, repro,
2016-05-02,-1.11, 0.61, -13.79, 1.62, 1.81, 7.44, repro,
2016-05-03,-1.55, 1.68, -16.80, 1.60, 1.79, 7.32, repro,
2016-05-04,-0.43, 0.16, -7.81, 1.62, 1.81, 7.44, repro,
2016-05-05,-0.80, 1.48, -9.38, 1.73, 1.88, 8.07, repro,
2016-05-06,-1.25, 1.31, -3.88, 1.66, 1.83, 7.65, repro,
2016-05-07,-1.43, 1.79, -11.23, 1.60, 1.85, 7.41, repro,
2016-05-08,-0.30, -0.93, -6.08, 1.73, 1.91, 7.76, repro,
2016-05-09,-0.61, -1.04, -2.78, 1.60, 1.76, 7.32, repro,
2016-05-10,-2.20, 1.42, -4.09, 1.60, 1.77, 7.34, repro,
2016-05-11,-2.40, 2.29, -1.17, 1.59, 1.76, 7.31, repro,
2016-05-12,-2.12, 0.46, -13.33, 1.58, 1.76, 7.29, repro,
2016-05-13,0.03, -0.59, -2.84, 1.69, 1.85, 7.74, repro,
2016-05-14,-2.40, 1.17, -11.19, 1.60, 1.75, 7.32, repro,
2016-05-15,-2.23, 3.49, -9.72, 1.60, 1.76, 7.34, repro,
2016-05-16,-1.90, -0.08, -14.47, 1.60, 1.78, 7.38, repro,
2016-05-17,-1.26, -1.32, -14.79, 1.60, 1.77, 7.34, repro,
2016-05-18,-1.21, 2.77, -19.47, 1.65, 1.94, 7.82, repro,
2016-05-19,-1.90, 2.80, -10.69, 1.61, 1.78, 7.38, repro,
2016-05-20,-1.03, 2.57, -11.49, 1.58, 1.76, 7.31, repro,
2016-05-21,0.04, 0.01, -14.86, 1.58, 1.77, 7.31, repro,
2016-05-22,-0.53, -3.30, -13.23, 1.61, 1.77, 7.39, repro,
2016-05-23,-1.92, 0.86, -9.79, 1.59, 1.75, 7.26, repro,
2016-05-24,-2.96, 0.20, -7.38, 1.59, 1.75, 7.28, repro,
2016-05-25,-2.37, 1.34, -7.37, 1.59, 1.77, 7.34, repro,
2016-05-26,-2.29, 1.28, -15.07, 1.58, 1.78, 7.35, repro,
2016-05-27,-1.55, 1.93, -5.22, 1.63, 1.82, 7.64, repro,
2016-05-28,-0.93, 0.55, -5.96, 1.60, 1.76, 7.33, repro,
2016-05-29,-3.00, 2.06, -3.46, 1.60, 1.75, 7.33, repro,
2016-05-30,-2.79, 1.58, -5.54, 1.57, 1.76, 7.32, repro,
2016-05-31,-3.88, 0.46, 2.96, 1.60, 1.78, 7.40, repro,
2016-06-01,-3.06, 0.68, -9.72, 1.59, 1.79, 7.45, repro,
2016-06-02,-2.84, 2.25, -12.18, 1.60, 1.78, 7.39, repro,
2016-06-03,-2.07, 0.18, -17.14, 1.63, 1.86, 7.62, repro,
2016-06-04,-2.73, 2.27, -8.61, 1.61, 1.76, 7.42, repro,
2016-06-05,-1.93, 0.95, -11.67, 1.59, 1.78, 7.36, repro,
2016-06-06,-0.87, 0.93, -4.62, 1.59, 1.83, 7.52, repro,
2016-06-07,-1.88, -1.39, -11.20, 1.59, 1.77, 7.35, repro,
2016-06-08,-2.65, 0.82, -7.11, 1.59, 1.77, 7.37, repro,
2016-06-09,-0.47, 1.74, -5.20, 1.60, 1.76, 7.33, repro,
2016-06-10,-1.03, 2.48, -2.99, 1.59, 1.76, 7.33, repro,
2016-06-11,-1.57, 2.09, -17.81, 1.58, 1.75, 7.29, repro,
2016-06-12,-2.98, 4.31, 2.93, 1.59, 1.76, 7.27, repro,
2016-06-13,-0.47, 1.58, -11.29, 1.60, 1.79, 7.44, repro,
2016-06-14,-2.90, 1.10, -0.62, 1.63, 1.80, 7.49, repro,
2016-06-15,-2.15, 3.02, 2.23, 1.74, 2.03, 8.26, repro,
2016-06-16,-2.87, 2.98, -7.17, 1.61, 1.77, 7.42, repro,
2016-06-17,-1.67, -2.24, -8.84, 1.64, 1.83, 7.58, repro,
2016-06-18,-3.38, 3.41, -8.93, 1.65, 1.84, 7.50, repro,
2016-06-19,-0.27, 3.12, -5.42, 1.65, 1.81, 7.58, repro,
2016-06-20,-0.78, 1.11, -6.38, 1.63, 1.84, 7.47, repro,
2016-06-21,-2.94, -0.45, 0.39, 1.61, 1.78, 7.42, repro,
2016-06-22,-3.21, 3.22, -5.40, 1.68, 1.90, 7.63, repro,
2016-06-23,-2.13, 0.42, -11.35, 1.89, 2.12, 8.62, repro,
2016-06-24,-1.94, 2.40, -8.94, 1.90, 2.12, 8.89, repro,
2016-06-25,-2.93, 0.00, -7.04, 1.86, 1.99, 8.29, repro,
2016-06-26,-3.88, 0.99, 3.37, 1.79, 1.96, 8.07, repro,
2016-06-27,-3.87, 2.81, -3.18, 1.60, 1.77, 7.40, repro,
2016-06-28,-4.26, 2.67, 4.34, 1.59, 1.77, 7.39, repro,
2016-06-29,-3.26, -0.58, 3.91, 1.91, 2.23, 8.97, repro,
2016-06-30,-2.14, 5.78, -13.14, 1.85, 2.08, 8.66, repro,
2016-07-01,-0.32, 4.98, -1.34, 1.94, 2.10, 8.80, repro,
2016-07-02,-1.87, 4.29, -13.24, 1.62, 1.81, 7.55, repro,
2016-07-03,-3.74, -1.46, -9.27, 1.91, 2.15, 9.05, repro,
2016-07-04,-1.00, 2.06, -4.38, 1.61, 1.78, 7.39, repro,
2016-07-05,0.29, 4.41, -5.36, 1.65, 1.89, 7.66, repro,
2016-07-06,-1.34, 2.78, -13.54, 1.75, 2.02, 8.30, repro,
2016-07-07,-2.54, 4.20, -4.97, 1.62, 1.80, 7.43, repro,
2016-07-08,-0.63, 2.75, -2.89, 1.77, 1.93, 8.08, repro,
2016-07-09,-3.47, 4.71, -1.79, 1.74, 1.99, 8.35, repro,
2016-07-10,-0.92, 4.41, -2.05, 1.91, 2.01, 8.43, repro,
2016-07-11,-0.83, 3.06, 5.00, 1.76, 1.90, 8.30, repro,
2016-07-12,-2.43, -0.30, -3.85, 1.60, 1.79, 7.50, repro,
2016-07-13,-1.99, 2.27, -7.36, 1.68, 1.86, 7.86, repro,
2016-07-14,-2.91, 1.75, -0.21, 1.70, 1.94, 8.08, repro,
2016-07-15,-1.54, 2.98, -4.42, 1.68, 1.81, 7.71, repro,
2016-07-16,-2.37, 3.07, -13.28, 1.59, 1.73, 7.35, repro,
2016-07-17,-1.15, 4.97, -13.01, 1.99, 2.12, 9.27, repro,
2016-07-18,-2.68, 1.36, -4.34, 1.61, 1.80, 7.44, repro,
2016-07-19,-2.91, 1.41, -14.82, 1.57, 1.76, 7.34, repro,
2016-07-20,0.86, 1.79, -0.65, 1.65, 1.83, 7.65, repro,
2016-07-21,-1.21, 1.96, -9.79, 1.83, 2.03, 8.49, repro,
2016-07-22,-5.20, 3.51, -2.68, 1.63, 1.79, 7.56, repro,
2016-07-23,-1.88, 3.13, -7.05, 1.62, 1.81, 7.56, repro,
2016-07-24,-3.20, 0.58, -2.22, 1.79, 2.06, 8.49, repro,
2016-07-25,-1.56, 2.74, -6.03, 1.87, 2.08, 9.15, repro,
2016-07-26,-1.49, 2.70, -8.06, 1.62, 1.84, 7.73, repro,
2016-07-27,-2.34, 3.00, -1.63, 1.69, 1.91, 8.28, repro,
2016-07-28,-2.86, 0.14, -7.63, 1.64, 1.78, 7.56, repro,
2016-07-29,-1.30, 2.18, -3.30, 1.93, 2.13, 8.76, repro,
2016-07-30,0.80, 3.52, -5.70, 1.86, 2.06, 8.78, repro,
2016-07-31,-2.54, 1.86, -5.74, 1.91, 2.14, 9.11, repro,
2016-08-01,-1.20, 3.59, 0.05, 1.69, 1.86, 7.95, repro,
2016-08-02,-2.22, 3.64, 5.74, 1.60, 1.77, 7.45, repro,
2016-08-03,-3.47, -0.41, -6.18, 2.01, 2.33, 9.13, repro,
2016-08-04,-1.99, 3.73, 3.54, 1.91, 2.03, 9.26, repro,
2016-08-05,-1.88, 3.85, 12.21, 1.63, 1.83, 7.71, repro,
2016-08-06,-0.97, 1.85, -12.03, 1.78, 1.93, 8.46, repro,
2016-08-07,-4.14, 4.57, -8.26, 1.61, 1.75, 7.46, repro,
2016-08-08,-0.58, 1.22, -0.60, 1.58, 1.71, 7.29, repro,
2016-08-09,-1.74, 2.00, -0.75, 1.66, 1.82, 7.97, repro,
2016-08-10,-0.53, 1.88, -6.31, 1.62, 1.75, 7.40, repro,
2016-08-11,-0.48, 3.89, -3.14, 1.76, 1.99, 8.24, repro,
2016-08-12,-3.62, 2.53, -3.36, 1.66, 1.80, 7.73, repro,
2016-08-13,-0.85, 1.82, -7.07, 1.65, 1.79, 7.52, repro,
2016-08-14,1.72, 1.86, -1.73, 1.67, 1.84, 7.86, repro,
2016-08-15,-1.29, 3.67, 6.61, 1.60, 1.72, 7.37, repro,
2016-08-16,1.23, 3.65, -4.82, 1.78, 1.90, 8.20, repro,
2016-08-17,0.04, 1.64, -0.55, 1.73, 1.87, 7.94, repro,
2016-08-18,-0.93, 1.48, 2.77, 1.75, 1.80, 7.95, repro,
2016-08-19,-1.46, 2.13, -18.20, 1.76, 1.81, 8.20, repro,
2016-08-20,-0.76, 2.45, -8.01, 1.60, 1.72, 7.36, repro,
2016-08-21,-0.57, 1.75, -1.97, 1.73, 1.85, 8.10, repro,
2016-08-22,-0.55, 2.51, -10.69, 1.93, 2.20, 9.45, repro,
2016-08-23,-0.35, 3.55, -9.60, 1.91, 2.11, 9.49, repro,
2016-08-24,-0.99, 2.22, -4.27, 1.62, 1.83, 7.65, repro,
2016-08-25,-1.68, -0.76, 1.05, 1.67, 1.85, 7.85, repro,
2016-08-26,-0.86, 3.60, 1.73, 1.61, 1.78, 7.44, repro,
2016-08-27,-3.00, 2.40, -9.10, 1.75, 2.00, 8.08, repro,
2016-08-28,-1.10, 1.59, -13.47, 1.94, 2.29, 9.55, repro,
2016-08-29,-1.20, 1.12, -7.46, 1.88, 2.27, 9.23, repro,
2016-08-30,-0.65, 1.64, -12.19, 2.03, 2.28, 10.03, repro,
2016-08-31,-0.59, 2.56, 0.09, 1.77, 2.03, 8.21, repro,
2016-09-01,-1.60, 3.79, -7.21, 1.79, 1.90, 8.13, repro,
2016-09-02,-0.36, 0.58, -1.76, 1.60, 1.78, 7.47, repro,
2016-09-03,-0.50, -0.92, -12.71, 1.88, 2.25, 9.20, repro,
2016-09-04,-0.44, 0.78, -6.30, 2.04, 2.50, 9.96, repro,
2016-09-05,-6.63, 7.84, 0.90, 1.59, 1.72, 7.41, repro,
2016-09-06,-4.06, 3.75, 1.90, 1.59, 1.74, 7.42, repro,
2016-09-07,-3.04, 4.34, -11.92, 1.65, 1.85, 7.81, repro,
2016-09-08,-0.56, 1.07, -13.85, 2.01, 2.37, 9.29, repro,
2016-09-09,0.65, 3.15, -8.45, 1.67, 1.80, 7.86, repro,
2016-09-10,-0.98, 0.91, -15.09, 1.63, 1.82, 7.71, repro,
2016-09-11,1.19, 0.57, -13.50, 1.61, 1.77, 7.54, repro,
2016-09-12,1.03, 2.91, -17.16, 1.78, 2.01, 8.06, repro,
2016-09-13,-0.68, 3.98, -10.80, 1.85, 2.12, 8.63, repro,
2016-09-14,-2.51, 3.39, -4.57, 1.86, 2.02, 8.55, repro,
2016-09-15,-2.13, 5.37, -21.11, 1.92, 2.37, 9.46, repro,
2016-09-16,0.26, 3.32, -11.18, 1.83, 2.05, 8.55, repro,
2016-09-17,0.20, 1.46, -19.91, 1.64, 1.74, 7.44, repro,
2016-09-18,1.83, 2.69, 8.06, 1.61, 1.74, 7.42, repro,
2016-09-19,1.41, 0.47, -7.39, 1.59, 1.72, 7.35, repro,
2016-09-20,-0.15, 3.64, -7.71, 1.62, 1.77, 7.56, repro,
2016-09-21,0.68, 0.96, 0.29, 1.89, 2.29, 9.30, repro,
2016-09-22,2.78, -0.56, 3.56, 1.91, 2.26, 9.14, repro,
2016-09-23,-0.07, 2.04, 0.11, 1.70, 1.87, 8.11, repro,
2016-09-24,-0.76, 2.83, -8.63, 1.60, 1.70, 7.30, repro,
2016-09-25,-1.71, 1.90, -7.66, 1.65, 1.85, 7.67, repro,
2016-09-26,0.49, 2.32, -7.61, 1.75, 1.92, 8.22, repro,
2016-09-27,0.62, 0.84, 1.12, 1.59, 1.70, 7.33, repro,
2016-09-28,-1.47, 2.77, -2.59, 1.61, 1.70, 7.40, repro,
2016-09-29,0.10, 2.97, -5.79, 1.60, 1.70, 7.42, repro,
2016-09-30,-0.30, 1.74, 0.83, 1.71, 1.83, 8.12, repro,
2016-10-01,0.16, 2.34, -5.19, 1.62, 1.73, 7.39, repro,
2016-10-02,0.59, 2.24, -2.85, 1.61, 1.78, 7.57, repro,
2016-10-03,0.32, 2.26, -3.67, 1.64, 1.83, 7.73, repro,
2016-10-04,1.39, 1.19, 17.51, 1.67, 1.79, 7.85, repro,
2016-10-05,0.81, 0.68, 7.11, 1.77, 1.91, 8.07, repro,
2016-10-06,-0.29, -0.36, 0.30, 1.68, 1.91, 7.81, repro,
2016-10-07,-2.63, 0.21, -4.60, 1.70, 1.92, 8.05, repro,
2016-10-08,-2.25, 0.86, -5.81, 1.61, 1.72, 7.41, repro,
2016-10-09,0.60, 2.26, -0.49, 1.77, 2.05, 8.44, repro,
2016-10-10,0.48, 1.53, 3.47, 1.58, 1.70, 7.26, repro,
2016-10-11,1.88, 0.31, -2.01, 1.82, 1.91, 8.36, repro,
2016-10-12,0.84, 2.54, -11.74, 1.62, 1.74, 7.43, repro,
2016-10-13,-1.33, 3.03, -1.14, 1.86, 2.31, 8.99, repro,
2016-10-14,1.14, 0.53, 3.62, 1.71, 1.97, 8.15, repro,
2016-10-15,-0.47, 3.31, 11.90, 1.74, 1.84, 7.94, repro,
2016-10-16,1.09, 3.91, -4.02, 1.96, 2.22, 9.39, repro,
2016-10-17,-0.63, 0.65, -4.78, 1.60, 1.71, 7.34, repro,
2016-10-18,-1.42, -0.62, -0.26, 1.74, 1.90, 8.22, repro,
2016-10-19,-0.11, -1.02, 2.84, 1.61, 1.77, 7.51, repro,
2016-10-20,-0.72, 0.06, -1.90, 1.59, 1.72, 7.34, repro,
2016-10-21,-1.13, 2.59, -4.06, 1.66, 1.78, 7.58, repro,
2016-10-22,0.23, 3.09, -1.56, 1.59, 1.71, 7.32, repro,
2016-10-23,-1.38, 0.51, -7.72, 1.63, 1.75, 7.56, repro,
2016-10-24,-2.11, 1.81, -8.53, 1.59, 1.71, 7.30, repro,
2016-10-25,-1.84, 0.77, -7.02, 1.59, 1.72, 7.33, repro,
2016-10-26,-2.38, 1.30, -7.33, 1.83, 2.17, 8.83, repro,
2016-10-27,-2.78, 1.89, 2.91, 1.72, 1.91, 7.93, repro,
2016-10-28,0.28, 1.82, -6.82, 1.77, 1.98, 8.00, repro,
2016-10-29,-1.87, 0.80, -3.33, 1.63, 1.80, 7.63, repro,
2016-10-30,-1.70, 2.87, -12.14, 1.59, 1.72, 7.31, repro,
2016-10-31,1.02, 2.28, -3.81, 1.59, 1.73, 7.31, repro,
2016-11-01,-0.95, 2.83, -8.13, 1.59, 1.72, 7.26, repro,
2016-11-02,-1.05, 3.67, -2.92, 1.73, 1.78, 8.04, repro,
2016-11-03,-1.24, 3.19, -8.78, 1.64, 1.83, 7.70, repro,
2016-11-04,-3.08, 1.70, -8.35, 1.63, 1.75, 7.49, repro,
2016-11-05,-2.02, 4.38, -18.48, 1.82, 2.06, 8.91, repro,
2016-11-06,-2.19, 1.29, -16.95, 1.70, 1.84, 7.82, repro,
2016-11-07,-1.52, 1.61, -6.57, 1.59, 1.72, 7.30, repro,
2016-11-08,-0.07, 2.08, -14.38, 1.70, 1.90, 8.31, repro,
2016-11-09,-1.09, 1.70, -19.40, 1.65, 1.81, 7.66, repro,
2016-11-10,-3.42, 1.62, -22.12, 1.64, 1.75, 7.68, repro,
2016-11-11,-2.15, 1.21, -11.63, 1.58, 1.73, 7.30, repro,
2016-11-12,-1.86, 1.96, -12.81, 1.58, 1.72, 7.27, repro,
2016-11-13,-2.73, 3.12, -18.44, 1.58, 1.73, 7.31, repro,
2016-11-14,-1.27, 1.72, -7.49, 1.61, 1.73, 7.44, repro,
2016-11-15,-0.61, 1.97, -10.50, 1.58, 1.72, 7.30, repro,
2016-11-16,-0.84, 2.98, -0.18, 1.63, 1.77, 7.53, repro,
2016-11-17,-1.34, 2.15, -10.75, 1.70, 1.87, 8.06, repro,
2016-11-18,-2.51, 3.24, -7.79, 1.59, 1.72, 7.30, repro,
2016-11-19,-1.05, 1.82, -9.45, 1.69, 1.91, 8.08, repro,
2016-11-20,-1.64, 3.50, -14.32, 1.59, 1.70, 7.29, repro,
2016-11-21,-2.13, 3.03, -5.13, 1.59, 1.73, 7.40, repro,
2016-11-22,-2.36, 2.97, -5.56, 1.59, 1.70, 7.31, repro,
2016-11-23,-1.92, 4.79, -9.72, 1.58, 1.73, 7.31, repro,
2016-11-24,-2.52, 3.73, -4.66, 1.58, 1.71, 7.23, repro,
2016-11-25,-0.10, 3.53, -2.81, 1.59, 1.70, 7.30, repro,
2016-11-26,-1.76, 2.50, -13.59, 1.65, 1.81, 7.59, repro,
2016-11-27,-1.02, 2.90, -6.52, 1.61, 1.76, 7.53, repro,
2016-11-28,-0.90, 4.52, -8.43, 1.61, 1.79, 7.55, repro,
2016-11-29,-0.26, 2.76, 0.37, 1.58, 1.72, 7.27, repro,
2016-11-30,-2.28, 1.91, -7.64, 1.58, 1.73, 7.30, repro,
2016-12-01,-0.03, 3.41, -3.96, 1.61, 1.75, 7.34, repro,
2016-12-02,-1.86, 2.81, -4.30, 1.63, 1.74, 7.45, repro,
2016-12-03,-1.66, 2.30, -6.94, 1.65, 1.82, 7.70, repro,
2016-12-04,-1.09, 2.58, -10.51, 1.60, 1.77, 7.52, repro,
2016-12-05,-0.34, 3.25, 1.11, 1.57, 1.70, 7.23, repro,
2016-12-06,0.45, 3.72, 0.93, 1.64, 1.83, 7.71, repro,
2016-12-07,-2.22, 4.21, -3.90, 1.60, 1.71, 7.35, repro,
2016-12-08,-1.01, 4.98, -7.56, 1.59, 1.74, 7.41, repro,
2016-12-09,-0.42, 4.20, -11.11, 1.63, 1.76, 7.50, repro,
2016-12-10,-1.94, 3.62, -6.77, 1.58, 1.72, 7.30, repro,
2016-12-11,-1.53, 3.25, -5.52, 1.58, 1.71, 7.27, repro,
2016-12-12,-1.49, 4.83, -0.11, 1.60, 1.75, 7.37, repro,
2016-12-13,-1.12, 4.20, -8.15, 1.61, 1.76, 7.44, repro,
2016-12-14,-1.30, 3.95, -0.55, 1.63, 1.77, 7.50, repro,
2016-12-15,-3.13, 3.24, -9.15, 1.59, 1.73, 7.31, repro,
2016-12-16,-0.62, 3.78, -7.44, 1.61, 1.75, 7.44, repro,